This demonstration page uses our WeatherBlox Daily Observations layout. Learn more.

Left ArrowRight Arrow

40.97296, -117.73568

Hourly Observations for May 9, 2022

Temp ( °F °C ) Dew Point ( °F °C ) Humidity (%) Winds ( mph kmh ) Pressure ( in mb ) Visibility ( mi km ) Precip ( " mm )
12:56 am 00:56 Clear 29 -1.7 22 -5.6 75 75 WSW 6 9 29.79 1009 10 16 0.00 0.00
1:56 am 01:56 Mostly Clear 31 -0.6 24 -4.4 76 76 WSW 15 24 29.78 1008 10 16 0.00 0.00
2:56 am 02:56 Clear 29 -1.7 23 -5 78 78 WSW 6 9 29.80 1009 10 16 0.00 0.00
3:56 am 03:56 Mostly Clear 28 -2.2 21 -6.1 75 75 SSW 9 15 29.85 1011 10 16 0.00 0.00
4:56 am 04:56 Mostly Clear 29 -1.7 20 -6.7 69 69 Calm 29.85 1011 10 16 0.00 0.00
5:56 am 05:56 Sunny 28 -2.2 20 -6.7 72 72 SSW 7 11 29.88 1012 10 16 0.00 0.00
6:56 am 06:56 Sunny 31 -0.6 22 -5.6 69 69 Calm 29.89 1012 10 16 0.00 0.00
7:56 am 07:56 Mostly Sunny 34 1.1 25 -3.9 70 70 W 10 17 29.91 1013 10 16 0.00 0.00
8:56 am 08:56 Partly Cloudy 37 2.8 23 -5 57 57 SW 9 15 29.92 1013 10 16 0.00 0.00
9:56 am 09:56 Mostly Sunny 40 4.4 23 -5 51 51 SW 17 28 29.91 1013 10 16 0.00 0.00
10:56 am 10:56 Mostly Cloudy 41 5 20 -6.7 43 43 W 9 15 29.92 1013 10 16 0.00 0.00
11:56 am 11:56 Cloudy 42 5.6 24 -4.4 49 49 NW 9 15 29.91 1013 10 16 0.00 0.00
12:56 pm 12:56 Partly Cloudy 43 6.1 28 -2.2 56 56 WNW 21 33 29.92 1013 10 16 0.00 0.00
1:51 pm 13:51 Mostly Cloudy with Light Snow 37 3 25 -4 60 60 WNW 9 15 29.97 1015 4 6 0.00 0.00
1:56 pm 13:56 Mostly Cloudy with Light Snow 40 4.4 26 -3.3 58 58 WNW 10 17 29.92 1013 6 10 0.00 0.00
2:56 pm 14:56 Partly Cloudy 43 6.1 20 -6.7 40 40 VRB 5 7 29.90 1013 10 16 0.00 0.00
3:46 pm 15:46 Cloudy with Light Snow 37 2.8 28 -2.2 70 70 WNW 5 7 29.96 1015 2 3 0.01 0.25
3:53 pm 15:53 Cloudy with Light Snow 37 3 28 -2 70 70 W 3 6 29.96 1014 3 5 0.00 0.00
3:56 pm 15:56 Cloudy with Light Snow 38 3.3 28 -2.2 68 68 Calm 29.92 1013 6 10 0.01 0.25
4:56 pm 16:56 Sunny 45 7.2 25 -3.9 46 46 ENE 6 9 29.88 1012 10 16 0.00 0.00
5:56 pm 17:56 Cloudy 44 6.7 22 -5.6 41 41 W 7 11 29.90 1012 10 16 0.00 0.00
6:56 pm 18:56 Sunny 39 3.9 26 -3.3 60 60 W 10 17 29.90 1013 10 16 0.00 0.00
7:56 pm 19:56 Clear 34 1.1 26 -3.3 73 73 WSW 7 11 29.91 1013 10 16 0.00 0.00
8:56 pm 20:56 Clear 36 2.2 25 -3.9 64 64 E 3 6 29.90 1012 10 16 0.00 0.00
9:56 pm 21:56 Mostly Clear 36 2.2 26 -3.3 67 67 N 5 7 29.91 1013 10 16 0.00 0.00
10:56 pm 22:56 Mostly Cloudy 33 0.6 27 -2.8 78 78 Calm 29.92 1013 10 16 0.00 0.00
11:56 pm 23:56 Mostly Clear 33 0.6 26 -3.3 75 75 NNE 3 6 29.93 1013 10 16 0.00 0.00

Powered by AerisWeather